Location: Dalton
(34.7700°N, 84.9700°W)
Time: 10:23:26
(UTC-05:00)

Envisat - Pass Details

Date: 16 October 2017
Orbit: 764 x 766 km, 98.2° (Epoch: 10 December)

Event Time Altitude Azimuth Distance (km) Brightness Sun altitude
Exits shadow 20:46:14 19° 27° (NNE) 1,789 4.7 -21.8°
Drops below altitude 10° 20:47:58 10° 13° (NNE) 2,309 5.4 -22.2°
Sets 20:50:34 0° 1° (N) 3,240 6.3 -22.7°
